Regional Weather Roundup
Issued by NWS

Home | Current Version | Previous Version | Graphics & Text | Print | Product List | Glossary On
Versions: 1 2 3 4 5 6 7 8 9 10 11 12 13 14 15 16 17 18 19 20 21 22 23 24 25 26 27 28 29 30 31 32 33 34 35 36 37 38 39 40 41 42 43 44 45 46 47 48 49 50
000
ASUS45 KCYS 121910
RWRWY

WYOMING REGIONAL WEATHER ROUNDUP
NATIONAL WEATHER SERVICE CHEYENNE WY
1200 PM MST TUE DEC 12 2017

NOTE:  "FAIR" INDICATES FEW OR NO CLOUDS BELOW 12,000 FEET
WITH NO SIGNIFICANT WEATHER AND/OR OBSTRUCTIONS TO VISIBILITY.

WYZ001-122000-
YELLOWSTONE NATIONAL PARK

CITY           SKY/WX    TMP DP  RH WIND       PRES   REMARKS
LK YELLOWSTONE   N/A     25  20  81 E5        30.49F WCI  19
W YELLOWSTONE  NOT AVBL

$$
WYZ002>013-054>058-071-098>099-122000-
NORTHERN WYOMING

CITY           SKY/WX    TMP DP  RH WIND       PRES   REMARKS
JACKSON        FAIR      32  17  54 CALM      30.51F
CODY           FAIR      43  20  39 NE8       30.24F
GREYBULL       FAIR      35  17  47 CALM      30.28F
WORLAND        FAIR      39  24  55 CALM      30.27F
SHERIDAN       FAIR      60  24  25 CALM      30.11F
BUFFALO        FAIR      65   8  10 CALM      30.16F
GILLETTE       FAIR      59  19  21 SW12      30.13F
HULETT         FAIR      46  21  36 SW10      30.12F
NEWCASTLE      FAIR      50  18  27 SE6       30.16F

$$
WYZ014>020-022>026-101>103-122000-
CENTRAL WYOMING

CITY           SKY/WX    TMP DP  RH WIND       PRES   REMARKS
BIG PINEY      FAIR      43   9  24 S3        30.45F
PINEDALE       FAIR      52   3  14 NW14      30.44F
DUBOIS         FAIR      52   1  12 NW13      30.37F
LANDER         FAIR      36  22  56 E3        30.32F
RIVERTON       FAIR      32  20  61 NE5       30.33F WCI  27
CASPER         FAIR      45  18  34 SW23G32   30.29F
DOUGLAS        FAIR      55  24  30 NW17G25   30.22F

$$
WYZ021-027>030-104>119-122000-
SOUTHERN WYOMING

CITY           SKY/WX    TMP DP  RH WIND       PRES   REMARKS
EVANSTON         N/A    N/A N/A N/A MISG      30.50F
FORT BRIDGER   FAIR      56   6  13 W14       30.51F
ROCK SPRINGS   FAIR      44   7  21 W10       30.45F
DIXON          FAIR      34  17  50 CALM      30.50F
RAWLINS        FAIR      45  14  28 SW22      30.42F
SARATOGA       FAIR      41  21  45 SE8       30.44F
LARAMIE        FAIR      54  13  19 SW21      30.34F
CHEYENNE       FAIR      59  14  17 W24G33    30.27F
TORRINGTON     FAIR      58  19  22 NW12      30.19F
PINE BLUFFS    FAIR      63  14  15 NW22G29   30.23F

$$



USA.gov is the U.S. government's official web portal to all federal, state and local government web resources and services.